EW0890 Weather Reports


Display with metric or nautical units.
time (UTC)temp
F
wind
direction
speed
MPH
gust
MPH
rain 1hr
in
rain 24hr
in
rain mn
in
humidity
%
barometer
mb
20260906225005 79 57 6.0 11.0 0.00 0.00 0.00 55 1016.0
20260906224612 79 67 6.0 11.0 0.00 0.00 0.00 56 1016.1
20260906224520 79 84 6.0 11.0 0.00 0.00 0.00 55 1016.1
20260906224013 80 61 5.0 11.0 0.00 0.00 0.00 55 1016.2
20260906223510 80 91 6.0 9.0 0.00 0.00 0.00 54 1016.3
20260906223106 80 65 5.0 10.0 0.00 0.00 0.00 56 1016.2
20260906223028 80 63 5.0 10.0 0.00 0.00 0.00 56 1016.3
20260906222514 80 65 6.0 10.0 0.00 0.00 0.00 55 1016.3
20260906222015 80 80 5.0 11.0 0.00 0.00 0.00 56 1016.4
20260906221558 80 71 6.0 11.0 0.00 0.00 0.00 56 1016.5
20260906221531 80 67 5.0 11.0 0.00 0.00 0.00 56 1016.5
20260906221016 80 84 6.0 14.0 0.00 0.00 0.00 57 1016.6
20260906220516 80 82 6.0 14.0 0.00 0.00 0.00 55 1016.7
20260906220106 81 65 6.0 14.0 0.00 0.00 0.00 56 1016.7
20260906220033 81 68 7.0 14.0 0.00 0.00 0.00 55 1016.7
20260906215503 81 74 6.0 12.0 0.00 0.00 0.00 56 1016.8
20260906215007 81 62 8.0 12.0 0.00 0.00 0.00 55 1016.8
20260906214557 81 53 7.0 12.0 0.00 0.00 0.00 55 1017.0
20260906214512 81 65 8.0 12.0 0.00 0.00 0.00 55 1016.9
20260906214006 81 66 6.0 12.0 0.00 0.00 0.00 54 1017.0
20260906213507 81 68 5.0 12.0 0.00 0.00 0.00 55 1017.1
20260906213101 81 77 5.0 11.0 0.00 0.00 0.00 57 1017.1
20260906213019 81 68 5.0 11.0 0.00 0.00 0.00 56 1017.0
20260906212515 81 68 8.0 11.0 0.00 0.00 0.00 55 1017.0
20260906212010 81 58 5.0 11.0 0.00 0.00 0.00 55 1017.0
20260906211607 81 63 7.0 11.0 0.00 0.00 0.00 54 1017.2
20260906211526 81 58 7.0 11.0 0.00 0.00 0.00 54 1017.1
20260906211017 81 83 6.0 10.0 0.00 0.00 0.00 55 1017.1
20260906210516 81 38 7.0 12.0 0.00 0.00 0.00 54 1017.2
20260906210031 81 65 7.0 15.0 0.00 0.00 0.00 54 1017.2
20260906205520 81 53 6.0 15.0 0.00 0.00 0.00 55 1017.3
20260906205015 81 25 9.0 14.0 0.00 0.00 0.00 56 1017.3
20260906204612 81 64 5.0 14.0 0.00 0.00 0.00 59 1017.5
20260906204534 81 66 5.0 14.0 0.00 0.00 0.00 59 1017.4
20260906204003 81 68 6.0 14.0 0.00 0.00 0.00 58 1017.4
20260906203508 81 70 7.0 11.0 0.00 0.00 0.00 59 1017.4
20260906203057 81 68 7.0 10.0 0.00 0.00 0.00 60 1017.6
20260906203017 81 68 7.0 10.0 0.00 0.00 0.00 60 1017.4
20260906202510 81 59 7.0 11.0 0.00 0.00 0.00 62 1017.4
20260906202013 81 72 5.0 12.0 0.00 0.00 0.00 63 1017.5
20260906201613 81 66 6.0 12.0 0.00 0.00 0.00 60 1017.7
20260906201524 81 68 7.0 12.0 0.00 0.00 0.00 63 1017.5
20260906201011 81 75 6.0 12.0 0.00 0.00 0.00 61 1017.5
20260906200512 81 80 5.0 12.0 0.00 0.00 0.00 62 1017.6
20260906200104 81 72 7.0 12.0 0.00 0.00 0.00 60 1017.8
20260906200030 81 69 7.0 12.0 0.00 0.00 0.00 61 1017.7
20260906195504 81 34 7.0 12.0 0.00 0.00 0.00 59 1017.7
20260906195004 81 77 7.0 12.0 0.00 0.00 0.00 60 1017.8
20260906194604 81 78 6.0 10.0 0.00 0.00 0.00 61 1017.9
20260906194508 81 71 5.0 10.0 0.00 0.00 0.00 61 1017.8
20260906194005 81 82 4.0 12.0 0.00 0.00 0.00 63 1017.8
20260906193506 81 69 5.0 12.0 0.00 0.00 0.00 64 1017.9
20260906193104 80 91 5.0 12.0 0.00 0.00 0.00 64 1018.0
20260906193014 80 64 4.0 12.0 0.00 0.00 0.00 62 1017.9
20260906192505 81 62 7.0 12.0 0.00 0.00 0.00 60 1018.0
20260906192007 80 58 5.0 13.0 0.00 0.00 0.00 62 1017.9
20260906191604 80 81 7.0 13.0 0.00 0.00 0.00 63 1018.1
20260906191523 80 56 7.0 13.0 0.00 0.00 0.00 63 1017.9
20260906191009 80 65 4.0 10.0 0.00 0.00 0.00 65 1018.0
20260906190509 79 59 5.0 10.0 0.00 0.00 0.00 65 1018.0
20260906190113 79 59 6.0 10.0 0.00 0.00 0.00 63 1018.2
20260906190027 79 72 6.0 10.0 0.00 0.00 0.00 63 1018.0
20260906185512 79 44 7.0 12.0 0.00 0.00 0.00 63 1017.9
20260906185014 79 68 6.0 12.0 0.00 0.00 0.00 62 1017.9
20260906184606 80 68 5.0 11.0 0.00 0.00 0.00 62 1018.2
20260906184533 80 65 5.0 11.0 0.00 0.00 0.00 64 1018.0
20260906184004 81 85 6.0 11.0 0.00 0.00 0.00 63 1018.1
20260906183504 80 60 7.0 11.0 0.00 0.00 0.00 63 1018.2
20260906183114 80 89 7.0 11.0 0.00 0.00 0.00 65 1018.4
20260906183008 80 103 7.0 11.0 0.00 0.00 0.00 65 1018.3
20260906182504 80 56 5.0 10.0 0.00 0.00 0.00 66 1018.2
20260906182007 80 67 6.0 13.0 0.00 0.00 0.00 63 1018.1
20260906181602 80 65 5.0 13.0 0.00 0.00 0.00 63 1018.5
20260906181516 80 55 5.0 13.0 0.00 0.00 0.00 66 1018.2
20260906181007 80 86 8.0 11.0 0.00 0.00 0.00 64 1018.2
20260906180507 80 87 6.0 11.0 0.00 0.00 0.00 64 1018.3
20260906180126 80 57 7.0 11.0 0.00 0.00 0.00 68 1018.6
20260906180024 80 78 6.0 11.0 0.00 0.00 0.00 66 1018.2
20260906175511 79 101 6.0 11.0 0.00 0.00 0.00 68 1018.2
20260906175014 79 88 7.0 12.0 0.00 0.00 0.00 66 1018.3
20260906174605 80 81 7.0 12.0 0.00 0.00 0.00 66 1018.5
20260906174530 79 93 7.0 12.0 0.00 0.00 0.00 67 1018.4
20260906174014 79 68 6.0 11.0 0.00 0.00 0.00 69 1018.4
20260906173514 79 72 7.0 11.0 0.00 0.00 0.00 68 1018.4
20260906173119 79 77 6.0 11.0 0.00 0.00 0.00 67 1018.7
20260906173030 79 88 7.0 11.0 0.00 0.00 0.00 68 1018.6
20260906172503 79 69 7.0 11.0 0.00 0.00 0.00 68 1018.7
20260906172004 79 94 7.0 11.0 0.00 0.00 0.00 70 1018.7
20260906171605 78 63 7.0 10.0 0.00 0.00 0.00 71 1018.8
20260906171512 78 82 7.0 10.0 0.00 0.00 0.00 71 1018.7
20260906171006 77 79 6.0 9.0 0.00 0.00 0.00 71 1018.7
20260906170507 77 67 7.0 11.0 0.00 0.00 0.00 71 1018.8
20260906170128 78 75 6.0 11.0 0.00 0.00 0.00 71 1019.1
20260906170016 78 85 5.0 11.0 0.00 0.00 0.00 72 1018.8
20260906165510 78 76 7.0 11.0 0.00 0.00 0.00 70 1019.0
20260906165011 78 68 7.0 12.0 0.00 0.00 0.00 71 1019.1
20260906164606 78 61 7.0 13.0 0.00 0.00 0.00 73 1019.3
20260906164533 78 97 7.0 13.0 0.00 0.00 0.00 73 1019.2
20260906164012 78 81 6.0 13.0 0.00 0.00 0.00 72 1019.3
20260906163513 78 67 6.0 11.0 0.00 0.00 0.00 72 1019.2
20260906163104 78 86 7.0 11.0 0.00 0.00 0.00 71 1019.2
20260906163028 78 72 7.0 11.0 0.00 0.00 0.00 72 1019.1
20260906162518 78 60 6.0 10.0 0.00 0.00 0.00 75 1018.9
20260906162013 77 57 6.0 13.0 0.00 0.00 0.00 74 1018.9
20260906161611 77 70 6.0 13.0 0.00 0.00 0.00 72 1019.0
20260906161508 77 72 6.0 13.0 0.00 0.00 0.00 72 1018.8
20260906161005 77 91 7.0 11.0 0.00 0.00 0.00 73 1018.8
20260906160506 77 72 7.0 11.0 0.00 0.00 0.00 73 1018.8
20260906160101 77 67 7.0 11.0 0.00 0.00 0.00 72 1019.0
20260906160013 77 60 7.0 11.0 0.00 0.00 0.00 73 1018.8
20260906155510 77 88 8.0 13.0 0.00 0.00 0.00 73 1018.7
20260906155009 77 65 7.0 13.0 0.00 0.00 0.00 73 1018.8
20260906154603 77 43 7.0 11.0 0.00 0.00 0.00 75 1019.0
20260906154518 77 85 6.0 11.0 0.00 0.00 0.00 74 1019.1
20260906154012 77 91 5.0 10.0 0.00 0.00 0.00 75 1018.9
20260906153509 77 64 6.0 12.0 0.00 0.00 0.00 74 1018.9
20260906153104 76 57 6.0 12.0 0.00 0.00 0.00 74 1018.9
20260906153028 76 70 6.0 12.0 0.00 0.00 0.00 72 1018.8
20260906152512 76 71 6.0 12.0 0.00 0.00 0.00 75 1018.7
20260906152015 76 89 5.0 12.0 0.00 0.00 0.00 76 1018.7
20260906151613 76 82 6.0 10.0 0.00 0.00 0.00 76 1018.6
20260906151531 76 77 5.0 10.0 0.00 0.00 0.00 76 1018.6
20260906151016 75 63 5.0 10.0 0.00 0.00 0.00 76 1018.6
20260906150516 76 70 6.0 9.0 0.00 0.00 0.00 76 1018.6
20260906150106 75 63 5.0 12.0 0.00 0.00 0.00 76 1018.5
20260906150011 75 86 5.0 12.0 0.00 0.00 0.00 76 1018.5
20260906145504 75 79 6.0 12.0 0.00 0.00 0.00 75 1018.6
20260906145008 75 56 6.0 12.0 0.00 0.00 0.00 76 1018.5
20260906144600 75 86 4.0 10.0 0.00 0.00 0.00 76 1018.4
20260906144520 75 113 5.0 10.0 0.00 0.00 0.00 76 1018.4
20260906144008 74 72 5.0 10.0 0.00 0.00 0.00 77 1018.4
20260906143509 74 98 7.0 10.0 0.00 0.00 0.00 76 1018.5
20260906143130 74 98 5.0 9.0 0.00 0.00 0.00 78 1018.5
20260906143023 74 82 5.0 9.0 0.00 0.00 0.00 79 1018.4
20260906142512 74 82 5.0 9.0 0.00 0.00 0.00 79 1018.3
20260906142014 74 82 5.0 9.0 0.00 0.00 0.00 79 1018.4
20260906141606 74 37 5.0 9.0 0.00 0.00 0.00 79 1018.5
20260906141529 74 73 5.0 9.0 0.00 0.00 0.00 80 1018.5
20260906141013 73 78 4.0 11.0 0.00 0.00 0.00 81 1018.5
20260906140516 73 72 5.0 11.0 0.00 0.00 0.00 82 1018.5
20260906140105 73 77 6.0 10.0 0.00 0.00 0.00 83 1018.5
20260906140030 73 86 6.0 9.0 0.00 0.00 0.00 82 1018.6
20260906135516 72 79 5.0 10.0 0.00 0.00 0.00 84 1018.6
20260906135016 72 86 4.0 10.0 0.00 0.00 0.00 86 1018.6
20260906134612 72 120 5.0 9.0 0.00 0.00 0.00 85 1018.6
20260906134515 72 77 5.0 9.0 0.00 0.00 0.00 86 1018.6
20260906134010 72 78 5.0 9.0 0.00 0.00 0.00 87 1018.6
20260906133508 72 86 5.0 9.0 0.00 0.00 0.00 88 1018.6
20260906133102 71 58 6.0 9.0 0.00 0.00 0.00 89 1018.6
20260906133018 71 89 6.0 9.0 0.00 0.00 0.00 88 1018.6
20260906132510 71 75 4.0 7.0 0.00 0.00 0.00 89 1018.6
20260906132009 71 105 4.0 7.0 0.00 0.00 0.00 90 1018.6
20260906131603 71 65 4.0 8.0 0.00 0.00 0.00 91 1018.6
20260906131523 71 69 4.0 8.0 0.00 0.00 0.00 91 1018.6
20260906131011 70 63 4.0 8.0 0.00 0.00 0.00 91 1018.5
20260906130516 70 78 4.0 7.0 0.00 0.00 0.00 92 1018.5
20260906130115 70 67 4.0 8.0 0.00 0.00 0.00 92 1018.5
20260906130031 70 80 4.0 8.0 0.00 0.00 0.00 92 1018.5
20260906125513 70 67 4.0 8.0 0.00 0.00 0.00 93 1018.5
20260906125019 69 75 3.0 7.0 0.00 0.00 0.00 94 1018.4
20260906124603 69 86 4.0 6.0 0.00 0.00 0.00 94 1018.4
20260906124537 69 86 4.0 6.0 0.00 0.00 0.00 94 1018.3
20260906124016 69 49 3.0 6.0 0.00 0.00 0.00 94 1018.3
20260906123520 69 79 3.0 6.0 0.00 0.00 0.00 95 1018.0
20260906123138 69 70 3.0 6.0 0.00 0.00 0.00 95 1018.1
20260906123024 69 65 3.0 6.0 0.00 0.00 0.00 95 1018.0
20260906122509 68 77 3.0 5.0 0.00 0.00 0.00 96 1018.0
20260906122008 68 67 3.0 6.0 0.00 0.00 0.00 96 1017.8
20260906121604 68 79 4.0 7.0 0.00 0.00 0.00 96 1017.8
20260906121531 68 76 3.0 7.0 0.00 0.00 0.00 96 1017.6
20260906121011 68 69 4.0 7.0 0.00 0.00 0.00 96 1017.5
20260906120515 68 68 3.0 6.0 0.00 0.00 0.00 96 1017.5
20260906120109 68 62 3.0 6.0 0.00 0.00 0.00 96 1017.6
20260906120025 68 59 3.0 6.0 0.00 0.00 0.00 96 1017.5
20260906115514 68 63 3.0 6.0 0.00 0.00 0.00 96 1017.3
20260906115012 68 58 3.0 6.0 0.00 0.00 0.00 96 1017.4
20260906114609 68 72 4.0 6.0 0.00 0.00 0.00 96 1017.5
20260906114532 68 70 3.0 6.0 0.00 0.00 0.00 96 1017.3
20260906114015 68 65 3.0 6.0 0.00 0.00 0.00 96 1017.4
20260906113503 68 60 3.0 5.0 0.00 0.00 0.00 96 1017.2
20260906113104 68 68 3.0 5.0 0.00 0.00 0.00 96 1017.3
20260906113012 68 63 3.0 5.0 0.00 0.00 0.00 96 1017.1
20260906112507 68 68 3.0 5.0 0.00 0.00 0.00 96 1017.0
20260906112008 69 54 3.0 5.0 0.00 0.00 0.00 96 1017.0
20260906111559 69 48 3.0 6.0 0.00 0.00 0.00 96 1017.1
20260906111519 69 61 3.0 6.0 0.00 0.00 0.00 96 1016.9
20260906111009 69 72 4.0 6.0 0.00 0.00 0.00 96 1016.7
20260906110509 70 60 4.0 6.0 0.00 0.00 0.00 95 1016.7
20260906110056 70 68 4.0 7.0 0.00 0.00 0.00 95 1016.8
20260906110025 70 44 4.0 7.0 0.00 0.00 0.00 95 1016.6
20260906105510 70 73 3.0 7.0 0.00 0.00 0.00 95 1016.4
20260906105014 70 78 4.0 7.0 0.00 0.00 0.00 95 1016.3
20260906104601 70 84 4.0 7.0 0.00 0.00 0.00 95 1016.5
20260906104532 70 63 4.0 7.0 0.00 0.00 0.00 95 1016.3
20260906104016 70 70 5.0 7.0 0.00 0.00 0.00 95 1016.4
20260906103516 70 63 4.0 7.0 0.00 0.00 0.00 95 1016.3
20260906103101 71 65 5.0 10.0 0.00 0.00 0.00 94 1016.4
20260906103029 71 76 5.0 8.0 0.00 0.00 0.00 94 1016.2
20260906102507 71 68 4.0 10.0 0.00 0.00 0.00 95 1016.2
20260906102005 71 66 6.0 10.0 0.00 0.00 0.00 94 1016.1
20260906101558 71 68 5.0 8.0 0.00 0.00 0.00 95 1016.3
20260906101518 71 70 5.0 8.0 0.00 0.00 0.00 95 1016.0
20260906101011 71 69 5.0 8.0 0.00 0.00 0.00 95 1016.0
20260906100510 71 53 6.0 8.0 0.00 0.00 0.00 95 1016.0
20260906100027 71 64 6.0 8.0 0.00 0.00 0.00 95 1016.0
20260906095510 71 68 4.0 7.0 0.00 0.00 0.00 96 1016.0
20260906095012 71 84 4.0 7.0 0.00 0.00 0.00 96 1016.1
20260906094608 70 51 4.0 6.0 0.00 0.00 0.00 96 1016.3
20260906094529 70 47 4.0 6.0 0.00 0.00 0.00 96 1016.0
20260906094011 70 66 3.0 5.0 0.00 0.00 0.00 96 1016.1
20260906093516 70 67 3.0 5.0 0.00 0.00 0.00 96 1016.1
20260906093100 70 56 3.0 5.0 0.00 0.00 0.00 96 1016.3
20260906093031 70 60 3.0 5.0 0.00 0.00 0.00 96 1016.1
20260906092519 70 58 2.0 5.0 0.00 0.00 0.00 96 1016.1
20260906092005 70 70 2.0 5.0 0.00 0.00 0.00 95 1016.0
20260906091608 70 64 3.0 5.0 0.00 0.00 0.00 95 1016.2
20260906091510 71 65 3.0 5.0 0.00 0.00 0.00 95 1016.0
20260906091003 71 80 2.0 5.0 0.00 0.00 0.00 95 1016.0
20260906090507 71 66 3.0 6.0 0.00 0.00 0.00 95 1015.9
20260906090107 71 49 4.0 6.0 0.00 0.00 0.00 95 1016.3
20260906090021 71 56 3.0 6.0 0.00 0.00 0.00 95 1016.0
20260906085512 71 59 3.0 4.0 0.00 0.00 0.00 95 1016.0
20260906085012 71 68 3.0 4.0 0.00 0.00 0.00 95 1016.1
20260906084605 71 70 2.0 4.0 0.00 0.00 0.00 95 1016.4
20260906084527 71 60 2.0 4.0 0.00 0.00 0.00 95 1016.1
20260906084014 71 52 2.0 4.0 0.00 0.00 0.00 95 1016.2
20260906083512 71 57 3.0 5.0 0.00 0.00 0.00 95 1016.2
20260906083105 71 60 3.0 6.0 0.00 0.00 0.00 95 1016.4
20260906083030 71 71 3.0 6.0 0.00 0.00 0.00 95 1016.1
20260906082516 71 68 3.0 6.0 0.00 0.00 0.00 94 1016.1
20260906082015 71 63 3.0 6.0 0.00 0.00 0.00 94 1016.0
20260906081604 71 73 3.0 5.0 0.00 0.00 0.00 94 1016.3
20260906081531 71 57 3.0 5.0 0.00 0.00 0.00 94 1016.0
20260906081017 71 51 2.0 6.0 0.00 0.00 0.00 94 1016.0
20260906080504 71 60 2.0 6.0 0.00 0.00 0.00 94 1016.1
20260906080105 71 60 3.0 6.0 0.00 0.00 0.00 94 1016.3
20260906080016 71 62 3.0 6.0 0.00 0.00 0.00 94 1016.2
20260906075507 71 72 4.0 6.0 0.00 0.00 0.00 94 1016.2
20260906075007 71 70 2.0 4.0 0.00 0.00 0.00 94 1016.2
20260906074607 71 15 1.0 4.0 0.00 0.00 0.00 94 1016.5
20260906074523 71 41 1.0 4.0 0.00 0.00 0.00 94 1016.2
20260906074011 71 66 1.0 5.0 0.00 0.00 0.00 94 1016.2
20260906073512 71 74 3.0 5.0 0.00 0.00 0.00 94 1016.1
20260906073104 71 63 3.0 5.0 0.00 0.00 0.00 94 1016.3
20260906073026 71 69 3.0 5.0 0.00 0.00 0.00 94 1016.0
20260906072515 71 64 2.0 5.0 0.00 0.00 0.00 94 1016.0
20260906072013 71 52 3.0 5.0 0.00 0.00 0.00 94 1016.0
20260906071647 71 79 3.0 5.0 0.00 0.00 0.00 94 1016.3
20260906071529 71 64 3.0 5.0 0.00 0.00 0.00 94 1016.0
20260906071014 71 68 2.0 4.0 0.00 0.00 0.00 94 1016.2
20260906070515 71 71 2.0 4.0 0.00 0.00 0.00 94 1016.2
20260906070107 70 75 2.0 3.0 0.00 0.00 0.00 94 1016.6
20260906070032 70 63 1.0 3.0 0.00 0.00 0.00 94 1016.3
20260906065517 70 71 1.0 3.0 0.00 0.00 0.00 94 1016.4
20260906065004 70 65 0.0 0.0 0.00 0.00 0.00 94 1016.4
20260906064600 70 0 0.0 0.0 0.00 0.00 0.00 94 1016.6
20260906064519 70 67 0.0 0.0 0.00 0.00 0.00 94 1016.4
20260906064008 70 72 0.0 2.0 0.00 0.00 0.00 95 1016.4
20260906063512 70 72 0.0 2.0 0.00 0.00 0.00 95 1016.4
20260906063102 70 0 0.0 2.0 0.00 0.00 0.00 95 1016.6
20260906063027 70 75 1.0 2.0 0.00 0.00 0.00 95 1016.4
20260906062512 70 69 0.0 2.0 0.00 0.00 0.00 95 1016.3
20260906062013 69 61 0.0 1.0 0.00 0.00 0.00 95 1016.4
20260906061603 69 61 0.0 2.0 0.00 0.00 0.00 95 1016.8
20260906061529 69 61 0.0 2.0 0.00 0.00 0.00 95 1016.5
20260906061014 69 84 0.0 2.0 0.00 0.00 0.00 95 1016.5
20260906060516 69 53 0.0 0.0 0.00 0.00 0.00 95 1016.5
20260906060105 69 0 0.0 0.0 0.00 0.00 0.00 95 1016.7
20260906060032 69 56 0.0 0.0 0.00 0.00 0.00 95 1016.5
20260906055518 69 70 0.0 0.0 0.00 0.00 0.00 95 1016.3
20260906055014 69 69 0.0 0.0 0.00 0.00 0.00 95 1016.2
20260906054605 69 0 0.0 0.0 0.00 0.00 0.00 95 1016.4
20260906054537 69 70 0.0 0.0 0.00 0.00 0.00 95 1016.2
20260906054022 68 70 0.0 0.0 0.00 0.00 0.00 95 1016.2
20260906053511 68 70 0.0 0.0 0.00 0.00 0.00 95 1016.0
20260906053110 68 0 0.0 0.0 0.00 0.00 0.00 94 1016.3
20260906053020 68 70 0.0 0.0 0.00 0.00 0.00 94 1016.0
20260906052507 69 70 0.0 0.0 0.00 0.00 0.00 94 1016.0
20260906052015 69 79 0.0 2.0 0.00 0.00 0.00 94 1016.0
20260906051604 69 0 0.0 3.0 0.00 0.00 0.00 94 1016.2
20260906051527 69 78 0.0 3.0 0.00 0.00 0.00 94 1015.9
20260906051015 69 65 1.0 4.0 0.00 0.00 0.00 94 1015.9
20260906050519 69 65 1.0 5.0 0.00 0.00 0.00 94 1015.9
20260906050111 69 69 3.0 6.0 0.00 0.00 0.00 94 1016.2
20260906050034 69 54 3.0 6.0 0.00 0.00 0.00 94 1015.8
20260906045514 69 68 3.0 6.0 0.00 0.00 0.00 94 1015.7
20260906045017 69 71 4.0 6.0 0.00 0.00 0.00 94 1015.7
20260906044600 69 78 3.0 8.0 0.00 0.00 0.00 94 1015.9
20260906044533 69 54 3.0 8.0 0.00 0.00 0.00 94 1015.6
20260906044014 69 56 4.0 8.0 0.00 0.00 0.00 94 1015.6
20260906043519 69 66 4.0 7.0 0.00 0.00 0.00 94 1015.6
20260906043106 70 57 4.0 9.0 0.00 0.00 0.00 94 1015.8
20260906043035 70 32 4.0 9.0 0.00 0.00 0.00 94 1015.6
20260906042517 69 65 3.0 9.0 0.00 0.00 0.00 94 1015.5
20260906042009 69 72 3.0 7.0 0.00 0.00 0.00 94 1015.6
20260906041603 70 70 3.0 7.0 0.00 0.00 0.00 94 1015.8
20260906041524 70 74 3.0 7.0 0.00 0.00 0.00 94 1015.5
20260906041013 70 67 3.0 7.0 0.00 0.00 0.00 94 1015.4
20260906040511 70 60 3.0 6.0 0.00 0.00 0.00 94 1015.4
20260906040117 70 46 4.0 7.0 0.00 0.00 0.00 94 1015.7
20260906040031 70 66 4.0 7.0 0.00 0.00 0.00 94 1015.4
20260906035513 70 67 4.0 7.0 0.00 0.00 0.00 94 1015.3
20260906035014 70 73 4.0 7.0 0.00 0.00 0.00 94 1015.3
20260906034607 70 63 4.0 8.0 0.00 0.00 0.00 93 1015.5
20260906034530 70 55 4.0 8.0 0.00 0.00 0.00 93 1015.3
20260906034016 71 58 5.0 8.0 0.00 0.00 0.00 94 1015.3
20260906033517 71 58 4.0 7.0 0.00 0.00 0.00 94 1015.3
20260906033111 71 63 4.0 7.0 0.00 0.00 0.00 94 1015.6
20260906033031 71 58 4.0 7.0 0.00 0.00 0.00 94 1015.3
20260906032518 71 69 4.0 6.0 0.00 0.00 0.00 94 1015.3
20260906032019 71 62 3.0 5.0 0.00 0.00 0.00 93 1015.4
20260906031604 71 63 3.0 6.0 0.00 0.00 0.00 93 1015.6
20260906031533 71 63 3.0 6.0 0.00 0.00 0.00 93 1015.3
20260906031022 71 65 3.0 7.0 0.00 0.00 0.00 93 1015.3
20260906030509 71 67 3.0 7.0 0.00 0.00 0.00 93 1015.3
20260906030020 72 47 2.0 5.0 0.00 0.00 0.00 92 1015.3
20260906025511 72 67 4.0 5.0 0.00 0.00 0.00 92 1015.2
20260906025015 72 58 3.0 5.0 0.00 0.00 0.00 92 1015.2
20260906024600 72 68 3.0 5.0 0.00 0.00 0.00 92 1015.4
20260906024527 72 65 3.0 5.0 0.00 0.00 0.00 92 1015.1
20260906024015 72 64 4.0 7.0 0.00 0.00 0.00 92 1015.1
20260906023503 73 68 3.0 7.0 0.00 0.00 0.00 91 1015.1
20260906023103 73 63 4.0 7.0 0.00 0.00 0.00 91 1015.3
20260906023009 73 72 4.0 7.0 0.00 0.00 0.00 91 1015.0
20260906022504 73 63 3.0 5.0 0.00 0.00 0.00 91 1014.9
20260906022003 73 57 2.0 7.0 0.00 0.00 0.00 90 1014.9
20260906021607 73 66 3.0 7.0 0.00 0.00 0.00 90 1015.1
20260906021520 73 70 3.0 7.0 0.00 0.00 0.00 90 1014.8
20260906021007 74 58 4.0 8.0 0.00 0.00 0.00 89 1014.7
20260906020507 74 64 5.0 9.0 0.00 0.00 0.00 89 1014.7
20260906020108 74 60 4.0 9.0 0.00 0.00 0.00 89 1014.9
20260906020025 74 60 4.0 9.0 0.00 0.00 0.00 88 1014.6
20260906015508 74 60 6.0 9.0 0.00 0.00 0.00 88 1014.6
20260906015010 75 53 6.0 9.0 0.00 0.00 0.00 88 1014.6
20260906014603 75 78 6.0 11.0 0.00 0.00 0.00 88 1014.7
20260906014528 75 39 6.0 11.0 0.00 0.00 0.00 88 1014.5
20260906014012 75 62 6.0 11.0 0.00 0.00 0.00 88 1014.6
20260906013506 75 33 6.0 11.0 0.00 0.00 0.00 87 1014.6
20260906013111 76 70 7.0 11.0 0.00 0.00 0.00 87 1014.8
20260906013008 76 74 7.0 11.0 0.00 0.00 0.00 87 1014.5
20260906012503 76 73 5.0 10.0 0.00 0.00 0.00 87 1014.4
20260906012003 76 62 5.0 10.0 0.00 0.00 0.00 86 1014.3
20260906011608 76 63 7.0 10.0 0.00 0.00 0.00 86 1014.4
20260906011510 77 58 7.0 10.0 0.00 0.00 0.00 86 1014.2
20260906011003 77 72 6.0 11.0 0.00 0.00 0.00 85 1014.2
20260906010508 77 60 5.0 11.0 0.00 0.00 0.00 85 1014.2
20260906010018 77 51 5.0 10.0 0.00 0.00 0.00 85 1014.2
20260906005509 78 43 5.0 12.0 0.00 0.00 0.00 85 1014.1
20260906005009 78 76 7.0 12.0 0.00 0.00 0.00 85 1014.0
20260906004612 78 73 4.0 8.0 0.00 0.00 0.00 85 1014.2
20260906004524 78 65 5.0 8.0 0.00 0.00 0.00 85 1014.0
20260906004012 78 74 4.0 8.0 0.00 0.00 0.00 84 1014.2
20260906003511 79 70 4.0 8.0 0.00 0.00 0.00 84 1014.1
20260906003105 79 66 4.0 6.0 0.00 0.00 0.00 83 1014.1
20260906003028 79 70 4.0 6.0 0.00 0.00 0.00 83 1014.0
20260906002514 80 80 3.0 8.0 0.00 0.00 0.00 83 1013.9
20260906002003 80 68 4.0 8.0 0.00 0.00 0.00 82 1013.8
20260906001601 80 68 5.0 11.0 0.00 0.00 0.00 81 1013.9
20260906001512 80 64 5.0 11.0 0.00 0.00 0.00 81 1013.8
20260906001003 81 57 6.0 11.0 0.00 0.00 0.00 81 1013.6
20260906000503 81 60 5.0 10.0 0.00 0.00 0.00 80 1013.7
20260906000107 82 53 4.0 10.0 0.00 0.00 0.00 80 1013.8
20260906000012 82 43 4.0 10.0 0.00 0.00 0.00 80 1013.7
20260905235507 82 56 5.0 11.0 0.00 0.00 0.00 79 1013.8
20260905235009 83 53 7.0 11.0 0.00 0.00 0.00 77 1013.5
20260905234602 83 70 6.0 10.0 0.00 0.00 0.00 77 1013.6
20260905234515 84 68 7.0 10.0 0.00 0.00 0.00 77 1013.6
20260905234014 84 56 4.0 8.0 0.00 0.00 0.00 76 1013.5
20260905233510 85 68 3.0 8.0 0.00 0.00 0.00 75 1013.7
20260905233059 85 73 3.0 6.0 0.00 0.00 0.00 74 1013.7
20260905233024 85 65 4.0 6.0 0.00 0.00 0.00 74 1013.6
20260905232512 86 63 2.0 7.0 0.00 0.00 0.00 72 1013.6
20260905232012 86 67 3.0 7.0 0.00 0.00 0.00 72 1013.4
20260905231603 86 69 4.0 7.0 0.00 0.00 0.00 71 1013.4
20260905231528 86 58 4.0 7.0 0.00 0.00 0.00 72 1013.2
20260905231003 86 73 3.0 6.0 0.00 0.00 0.00 72 1013.2
20260905230504 87 72 3.0 7.0 0.00 0.00 0.00 71 1013.1
20260905230010 87 54 3.0 7.0 0.00 0.00 0.00 71 1013.1
20260905225504 88 39 2.0 7.0 0.00 0.00 0.00 71 1013.3